Weather History for KMPV - March, 2013

Change the Weather History Date:

Wednesday, March 27, 2013

  Actual Average Record
Temperature  
Mean Temperature 33 °F 33 °F  
Max Temperature 42 °F 43 °F 69 °F (1993)
Min Temperature 23 °F 24 °F 2 °F (1990)
Degree Days  
Heating Degree Days 32 32  
Month to date heating degree days 954 996  
Since 1 July heating degree days 6503 6904  
Cooling Degree Days 0 0  
Month to date cooling degree days 0 0  
Year to date cooling degree days 0 0  
Moisture  
Dew Point 25 °F    
Average Humidity 77    
Maximum Humidity 100    
Minimum Humidity 54    
Precipitation  
Precipitation T in 0.08 in 0.76 in (1992)
Month to date precipitation 0.77 2.06  
Year to date precipitation 3.01 6.55  
Sea Level Pressure  
Sea Level Pressure 29.88 in    
Wind  
Wind Speed 6 mph (NW)    
Max Wind Speed 16 mph    
Max Gust Speed 23 mph    
Visibility 10 miles    
Events Snow    
T = Trace of Precipitation, MM = Missing Value Source: NWS Daily Summary

Daily Weather History Graph

Daily Weather History Graph

Search for Another Location

Airport or City:

Trip Planner

Search our weather history database for the weather conditions in past years. The results will help you decide how hot, cold, wet, or windy it might be!

Date:

Astronomy

Mar. 27, 2013 Rise Set
Actual Time 6:40 AM EDT 7:11 PM EDT
Civil Twilight 6:11 AM EDT 7:40 PM EDT
Nautical Twilight 5:36 AM EDT 8:15 PM EDT
Astronomical Twilight 5:01 AM EDT 8:50 PM EDT
Moon 7:55 PM EDT (3/27) 6:27 AM EDT (3/27)
Length of Visible Light 13h 29m
Length of Day
12h 31m
Full, 100% of the Moon is Illuminated
Mar 27
Full
Apr 3
Last Quarter
Apr 10
New
Apr 18
First Quarter
Apr 25
Full

Hourly Weather History & Observations

Time (EDT) Temp. Windchill Dew Point Humidity Pressure Visibility Wind Dir Wind Speed Gust Speed Precip Events Conditions
12:51 AM 26.1 °F 21.9 °F 19.9 °F 78% 29.84 in 10.0 mi SSE 3.5 mph - N/A   Partly Cloudy
1:51 AM 24.1 °F 17.0 °F 19.0 °F 81% 29.84 in 10.0 mi South 5.8 mph - N/A   Clear
2:51 AM 26.1 °F - 19.9 °F 78% 29.83 in 10.0 mi Calm Calm - N/A   Mostly Cloudy
3:51 AM 28.9 °F 23.9 °F 19.9 °F 69% 29.82 in 10.0 mi WSW 4.6 mph - N/A   Mostly Cloudy
4:51 AM 28.0 °F - 21.0 °F 75% 29.82 in 10.0 mi Calm Calm - N/A   Overcast
5:51 AM 24.1 °F 19.7 °F 19.0 °F 81% 29.83 in 10.0 mi South 3.5 mph - N/A   Clear
6:51 AM 24.1 °F 19.7 °F 19.0 °F 81% 29.84 in 10.0 mi South 3.5 mph - N/A   Mostly Cloudy
7:51 AM 28.9 °F - 21.9 °F 75% 29.86 in 10.0 mi Calm Calm - N/A   Overcast
8:51 AM 34.0 °F 28.0 °F 23.0 °F 64% 29.87 in 10.0 mi North 6.9 mph - N/A   Scattered Clouds
9:51 AM 36.0 °F 30.3 °F 24.1 °F 62% 29.88 in 10.0 mi WNW 6.9 mph - N/A   Clear
10:51 AM 37.9 °F 30.5 °F 24.1 °F 57% 29.87 in 10.0 mi WNW 11.5 mph - N/A   Overcast
12:51 PM 39.2 °F 32.5 °F 24.8 °F 56% 29.83 in 10.0 mi NW 10.4 mph 18.4 mph N/A   Overcast
1:51 PM 39.9 °F 33.9 °F 25.0 °F 55% 29.87 in 10.0 mi NW 9.2 mph 19.6 mph N/A   Overcast
2:51 PM 39.9 °F 32.9 °F 25.0 °F 55% 29.87 in 10.0 mi NNW 11.5 mph 20.7 mph N/A   Overcast
3:51 PM 41.0 °F 33.5 °F 26.1 °F 55% 29.87 in 10.0 mi NNW 13.8 mph - N/A   Mostly Cloudy
4:51 PM 39.9 °F 32.5 °F 27.0 °F 60% 29.89 in 10.0 mi North 12.7 mph 18.4 mph N/A   Overcast
5:51 PM 39.2 °F 32.0 °F 28.4 °F 65% 29.87 in 10.0 mi NW 11.5 mph 18.4 mph N/A   Overcast
6:25 PM 37.4 °F 30.8 °F 28.4 °F 70% 29.88 in 10.0 mi NNW 9.2 mph - N/A   Overcast
6:51 PM 37.0 °F 31.6 °F 28.9 °F 73% 29.94 in 10.0 mi North 6.9 mph - N/A   Overcast
7:21 PM 37.4 °F 31.4 °F 28.4 °F 70% 29.90 in 10.0 mi North 8.1 mph - N/A   Overcast
7:51 PM 36.0 °F 31.1 °F 28.9 °F 76% 29.96 in 10.0 mi NNW 5.8 mph - N/A   Overcast
8:51 PM 34.0 °F 29.8 °F 30.9 °F 89% 29.97 in 9.0 mi NW 4.6 mph - 0.00 in Snow Light Snow
9:51 PM 33.1 °F 30.0 °F 32.0 °F 96% 29.98 in 10.0 mi WNW 3.5 mph - 0.00 in   Overcast
10:51 PM 33.1 °F - 32.0 °F 96% 29.97 in 6.0 mi Calm Calm - 0.00 in Snow Light Snow
11:51 PM 32.0 °F 28.7 °F 32.0 °F 100% 29.97 in 4.0 mi WNW 3.5 mph - 0.00 in Snow Light Snow